Wind_Speed
32 31 29 28 28 26 27 21 22 23 25 25 24 25 27 25 25 21 17 23 23 21 21 24 23 23 25 23 24 28 29 29 24 23 24 23 20 19 19 18 17 16 15
34 32 33 30 29 28 28 25 21 24 24 25 25 25 26 26 25 23 20 22 18 18 17 20 20 19 26 29 32 30 37 32 31 29 27 27 23 21 21 19 19 17 16
33 36 34 32 32 30 29 28 21 23 24 23 24 26 26 26 25 24 21 21 19 20 21 22 24 27 26 34 34 39 36 37 34 30 30 31 26 24 22 21 20 19 17
39 37 36 35 35 35 32 34 24 22 24 23 23 25 26 26 25 24 24 20 21 21 21 22 25 29 31 32 37 49 30 31 35 34 33 33 28 25 23 22 21 21 19
42 41 37 36 37 38 34 33 31 25 26 25 23 23 25 26 25 23 23 23 21 22 19 22 25 30 32 35 38 34 46 33 36 35 38 34 29 26 25 23 22 22 21
45 45 43 37 38 40 35 30 34 31 27 30 25 25 25 26 26 23 24 23 24 24 19 21 24 26 27 27 29 31 26 38 33 33 38 35 32 28 27 24 24 22 23
51 48 47 45 36 41 40 36 34 37 31 31 30 26 26 26 27 25 25 25 25 24 26 23 23 23 24 27 26 27 20 24 36 37 38 38 34 31 28 27 26 25 23
54 54 52 48 44 41 42 42 37 38 36 34 33 30 27 28 25 28 29 27 28 25 24 27 22 23 23 24 23 20 21 26 34 36 37 37 35 31 31 29 29 28 28
56 59 55 52 48 45 44 44 41 41 40 38 35 33 29 30 33 30 30 28 31 29 28 28 23 22 22 24 20 15 25 28 34 37 41 37 34 35 35 33 30 28 29
59 56 54 52 51 47 46 44 41 41 45 41 39 36 34 34 33 33 33 30 31 31 32 32 30 23 22 20 23 20 19 21 34 38 41 38 39 41 39 37 34 34 32
61 60 59 55 53 53 53 46 41 42 44 44 39 39 39 35 35 36 34 32 32 30 31 34 33 27 24 20 22 24 22 21 26 36 38 41 43 40 40 42 40 42 38
61 60 61 57 56 52 55 52 42 41 45 46 44 44 42 39 36 39 40 35 36 31 33 31 35 31 29 24 22 23 22 23 23 31 42 43 42 39 36 42 44 49 46
66 65 64 64 59 54 58 52 50 48 47 49 49 47 45 42 37 40 41 37 40 37 36 32 29 34 33 30 25 24 23 24 27 28 34 42 44 41 41 36 41 49 49
73 68 68 67 62 59 58 56 53 54 50 51 51 51 47 44 38 41 38 38 41 40 39 35 33 30 33 31 28 28 24 25 27 28 32 37 41 42 43 40 38 39 46
83 78 75 74 68 64 64 63 62 53 53 52 55 55 50 45 42 41 38 41 43 43 39 37 40 32 31 33 33 29 28 27 30 30 31 38 42 41 39 39 38 38 40
82 88 84 78 80 72 71 67 63 59 57 57 55 54 52 46 45 41 45 44 45 44 42 37 39 37 33 30 32 35 34 31 32 32 33 37 38 41 42 40 38 36 38
62 73 91 90 88 53 75 71 70 63 62 62 57 53 53 49 47 45 48 48 45 47 45 37 41 38 35 31 30 35 39 40 36 39 36 37 39 41 46 46 43 41 43
58 62 74 89 74 44 57 67 68 66 65 65 58 53 54 52 48 47 46 50 49 48 46 41 39 39 36 33 35 36 38 41 41 41 43 39 40 38 38 44 44 43 47
39 45 48 65 67 68 55 68 69 67 66 64 55 53 54 56 50 48 48 46 51 47 41 44 35 37 36 36 41 40 37 43 44 42 44 45 42 42 40 42 48 46 45
23 27 30 34 40 45 47 55 60 65 67 61 54 56 59 54 50 49 47 48 47 39 42 42 38 34 38 39 43 40 42 43 46 45 43 42 45 43 40 41 43 51 50
22 18 30 38 40 45 45 48 54 64 60 52 56 57 53 53 50 49 49 47 44 41 43 42 41 38 39 43 42 42 42 42 44 46 46 42 45 46 43 42 46 45 49
3 22 21 23 32 34 30 35 41 44 49 54 52 53 52 52 52 46 45 48 40 43 46 42 42 42 42 45 45 44 46 44 45 45 50 49 47 47 46 43 42 44 49
19 23 25 26 26 28 27 34 35 39 46 50 52 52 54 56 48 47 45 44 44 44 45 47 49 47 46 48 46 44 43 43 43 46 52 51 51 50 47 48 45 49 47
21 25 29 32 34 34 38 37 32 46 43 47 47 52 54 53 46 51 49 46 49 51 53 51 52 50 49 50 46 46 44 44 40 43 46 48 46 50 50 51 51 47 47
25 23 26 33 35 39 41 41 43 47 43 44 49 54 54 51 51 52 53 49 56 53 57 63 55 51 50 49 47 48 46 43 41 41 41 46 42 47 51 53 51 50 47
11 21 21 35 41 42 31 58 49 56 53 48 51 51 53 50 55 54 55 54 52 52 47 44 48 49 51 51 47 46 45 46 46 43 41 44 48 46 48 54 53 56 51
Wind_Direction
269 265 267 272 278 282 282 269 266 271 276 279 269 266 266 265 268 273 283 289 294 287 285 284 272 260 250 255 255 255 245 249 241 238 239 232 232 237 238 235 232 233 241
269 269 268 268 272 277 282 280 272 270 274 276 276 270 265 266 267 271 278 286 289 277 286 292 290 277 256 247 256 261 251 238 244 237 240 230 229 232 237 237 234 236 240
262 264 267 270 275 275 278 279 283 279 273 272 276 274 268 263 266 270 277 281 276 276 285 292 284 282 274 254 250 252 257 233 235 241 236 223 227 229 232 235 235 235 238
261 260 264 266 270 274 277 283 281 280 280 277 271 272 272 267 264 268 277 273 269 275 284 289 283 288 282 273 263 261 265 237 229 239 231 218 224 228 232 236 238 240 241
260 260 261 263 268 275 272 281 286 284 280 281 282 275 272 273 265 264 275 279 273 269 280 281 285 287 276 274 273 275 266 250 234 235 211 215 221 226 231 238 239 242 243
258 258 260 257 264 269 268 276 279 278 278 276 277 279 275 271 266 264 269 278 279 278 272 277 289 290 281 277 271 265 273 268 233 223 215 217 218 224 236 235 239 240 245
252 256 255 256 255 262 268 271 270 272 274 279 275 276 277 271 272 268 266 271 278 280 287 286 297 295 281 290 278 268 279 243 225 217 220 220 223 227 233 238 241 240 243
250 253 253 252 251 253 261 264 266 268 269 273 277 266 267 271 273 270 266 270 275 276 276 282 289 298 291 305 290 267 277 238 226 218 223 223 227 230 235 240 241 245 243
247 249 251 252 250 250 251 257 260 265 267 268 273 269 264 266 267 265 267 267 274 282 282 279 284 291 293 301 305 299 266 269 229 228 226 228 229 234 238 240 241 244 248
248 245 246 249 249 253 251 249 253 260 264 266 266 272 270 276 262 265 264 266 273 278 283 284 287 288 290 292 301 292 273 276 241 236 224 228 228 233 235 242 242 242 247
251 251 247 243 243 240 249 247 242 252 262 261 262 268 269 273 266 269 265 255 260 265 271 279 280 282 283 283 287 282 281 292 250 239 230 230 234 239 240 239 243 244 241
245 246 248 245 244 241 246 244 252 243 252 256 258 262 267 271 269 269 269 261 259 258 265 268 274 276 276 276 276 281 276 281 255 247 242 239 236 240 245 245 246 253 247
244 242 245 244 242 239 235 244 247 243 248 253 255 259 262 264 268 261 265 267 267 264 268 268 268 270 273 270 273 275 278 271 265 254 246 245 247 240 246 254 252 255 260
244 240 240 245 241 241 240 243 241 249 250 251 253 256 259 262 265 269 266 259 263 264 266 273 269 264 269 273 268 271 276 275 276 266 251 249 247 247 245 250 253 260 269
241 240 237 238 242 237 238 240 246 247 253 253 255 255 257 259 266 256 258 261 261 261 262 268 273 272 269 278 279 271 276 279 273 272 269 250 248 247 246 246 254 259 271
237 235 235 235 237 236 232 234 240 244 248 254 256 259 259 258 262 258 259 262 262 261 259 262 266 271 268 266 274 277 273 272 277 276 271 264 247 248 250 249 248 256 265
238 234 230 230 232 232 231 233 235 242 248 254 257 258 260 257 259 259 255 257 262 268 256 256 264 265 266 263 264 269 272 273 268 273 276 273 256 250 248 251 253 253 257
239 234 231 229 228 231 218 232 234 239 244 251 257 260 261 256 255 257 257 255 259 258 253 255 261 264 265 267 266 270 269 270 270 269 271 270 267 263 250 248 251 253 253
234 234 227 226 228 238 236 231 236 241 243 250 257 257 257 254 257 254 254 257 260 248 253 257 258 259 261 264 269 268 267 269 270 271 269 264 259 259 259 254 251 252 253
204 203 202 207 223 231 236 239 243 241 242 250 251 251 251 257 257 257 255 260 246 243 250 257 258 257 259 261 265 266 268 267 269 268 265 265 260 258 255 255 254 252 250
216 212 213 218 215 224 227 228 236 240 245 247 248 250 255 255 253 251 253 256 249 242 252 256 258 257 257 261 260 262 269 268 266 271 270 265 260 258 254 252 258 253 250
62 218 218 209 209 219 231 224 220 227 234 242 248 251 252 250 253 256 257 252 253 251 251 259 261 258 258 260 259 263 268 272 276 273 273 270 262 255 253 253 255 250 252
208 211 218 226 232 224 232 240 239 234 236 239 243 245 248 251 253 253 253 249 256 263 256 261 263 258 259 261 262 268 272 275 278 276 276 270 259 253 253 249 255 256 257
228 228 226 225 225 229 230 243 220 240 239 238 245 250 254 254 265 256 255 261 257 258 262 264 263 256 259 260 265 268 275 278 281 280 280 271 260 252 251 248 254 255 260
239 228 244 241 235 236 236 232 238 233 233 231 248 252 253 251 257 263 264 261 267 263 263 266 256 254 257 259 262 270 272 276 282 286 284 269 262 257 252 250 255 253 254
194 221 220 255 215 232 238 241 231 228 244 241 245 250 264 259 253 259 260 265 263 260 255 247 250 256 259 260 265 265 270 278 281 283 287 276 261 263 259 255 258 253 256
Height
5798 5798 5797 5798 5799 5801 5802 5800 5801 5803 5804 5806 5807 5806 5807 5807 5806 5807 5806 5805 5804 5802 5800 5799 5800 5802 5801 5803 5803 5805 5806 5808 5810 5812 5814 5816 5818 5820 5822 5823 5825 5826 5828
5791 5792 5793 5794 5795 5795 5796 5797 5795 5797 5798 5799 5801 5802 5802 5802 5802 5801 5802 5800 5799 5799 5798 5796 5796 5797 5798 5798 5798 5800 5800 5801 5804 5807 5809 5811 5814 5816 5818 5820 5821 5823 5824
5783 5786 5788 5789 5790 5790 5790 5791 5790 5792 5793 5794 5796 5797 5797 5797 5798 5797 5797 5795 5794 5794 5794 5793 5792 5792 5792 5793 5793 5793 5791 5792 5797 5800 5804 5806 5809 5811 5814 5816 5817 5818 5820
5775 5778 5781 5783 5783 5784 5787 5786 5784 5785 5787 5788 5789 5791 5792 5792 5792 5792 5791 5792 5791 5790 5789 5787 5787 5786 5785 5785 5786 5784 5784 5785 5789 5793 5796 5801 5804 5807 5810 5812 5814 5815 5816
5765 5769 5772 5774 5776 5777 5779 5780 5779 5778 5780 5782 5782 5784 5786 5786 5786 5786 5786 5784 5786 5786 5785 5782 5782 5781 5779 5779 5778 5778 5776 5779 5783 5787 5790 5794 5799 5802 5805 5808 5810 5811 5812
5756 5759 5763 5767 5766 5769 5770 5773 5773 5771 5772 5774 5776 5777 5779 5780 5781 5781 5780 5779 5778 5778 5780 5779 5777 5775 5773 5772 5770 5771 5770 5772 5776 5780 5785 5789 5792 5796 5800 5803 5805 5807 5808
5747 5748 5751 5756 5759 5759 5762 5764 5766 5765 5765 5768 5767 5770 5771 5773 5774 5775 5775 5774 5774 5772 5769 5772 5771 5769 5768 5766 5764 5764 5763 5765 5769 5775 5779 5784 5787 5791 5794 5797 5800 5802 5803
5734 5738 5740 5743 5749 5753 5752 5754 5757 5758 5758 5759 5761 5760 5762 5765 5768 5767 5767 5767 5768 5768 5766 5764 5767 5763 5761 5759 5757 5757 5760 5761 5764 5769 5774 5778 5781 5785 5789 5791 5794 5796 5798
5720 5725 5730 5732 5736 5740 5743 5744 5746 5749 5750 5750 5752 5754 5754 5757 5757 5759 5760 5761 5760 5760 5759 5759 5759 5758 5757 5755 5751 5753 5756 5757 5759 5763 5768 5772 5775 5779 5782 5785 5788 5791 5792
5704 5708 5714 5719 5723 5728 5731 5735 5737 5739 5739 5742 5742 5747 5748 5749 5748 5750 5753 5754 5754 5755 5752 5750 5751 5751 5750 5749 5749 5750 5751 5751 5753 5756 5761 5765 5769 5772 5775 5778 5780 5784 5785
5693 5696 5699 5704 5710 5714 5721 5718 5721 5728 5731 5734 5734 5736 5739 5740 5739 5741 5743 5746 5747 5750 5749 5746 5745 5745 5744 5743 5743 5745 5745 5745 5747 5750 5754 5758 5762 5765 5768 5770 5773 5774 5777
5678 5684 5685 5691 5696 5703 5705 5688 5707 5715 5721 5725 5726 5728 5730 5732 5734 5731 5733 5736 5738 5741 5741 5743 5740 5738 5738 5738 5739 5739 5740 5741 5742 5745 5748 5750 5754 5757 5759 5762 5765 5764 5768
5660 5669 5674 5678 5683 5689 5692 5699 5704 5707 5708 5713 5717 5719 5720 5723 5724 5723 5724 5729 5728 5730 5731 5735 5735 5731 5731 5731 5731 5733 5734 5735 5736 5738 5740 5742 5745 5748 5751 5753 5755 5756 5758
5640 5651 5658 5661 5668 5676 5679 5686 5690 5696 5697 5700 5705 5707 5712 5713 5714 5715 5715 5719 5720 5723 5721 5725 5727 5726 5722 5723 5724 5725 5728 5729 5729 5729 5731 5733 5735 5738 5740 5744 5746 5747 5748
5618 5627 5637 5643 5650 5658 5663 5672 5677 5684 5687 5690 5693 5696 5701 5704 5705 5704 5705 5709 5710 5712 5714 5716 5714 5717 5716 5714 5713 5716 5718 5721 5721 5721 5722 5723 5726 5728 5730 5733 5736 5738 5739
5590 5603 5612 5625 5631 5631 5642 5652 5663 5670 5675 5678 5681 5686 5691 5693 5695 5697 5697 5699 5700 5702 5704 5708 5707 5706 5708 5710 5707 5706 5709 5711 5713 5714 5714 5714 5715 5718 5721 5723 5726 5728 5730
5568 5576 5587 5601 5613 5591 5625 5633 5648 5657 5663 5668 5670 5674 5681 5683 5683 5685 5687 5688 5691 5691 5692 5699 5697 5697 5697 5700 5701 5700 5700 5701 5704 5704 5705 5705 5705 5708 5710 5713 5715 5718 5721
5551 5555 5568 5583 5606 5602 5607 5621 5637 5645 5652 5656 5661 5663 5669 5671 5672 5674 5677 5677 5679 5679 5680 5688 5689 5688 5687 5687 5690 5692 5690 5691 5692 5694 5695 5695 5696 5697 5699 5702 5705 5707 5710
5541 5552 5561 5571 5583 5592 5604 5618 5628 5635 5642 5645 5652 5652 5656 5657 5659 5662 5665 5667 5668 5667 5671 5674 5680 5677 5677 5678 5677 5678 5681 5679 5680 5682 5682 5683 5685 5686 5687 5689 5693 5696 5698
5540 5547 5557 5571 5584 5593 5599 5609 5617 5625 5630 5634 5638 5639 5640 5646 5649 5652 5652 5654 5654 5657 5659 5661 5665 5666 5666 5668 5667 5668 5668 5669 5667 5667 5669 5670 5671 5674 5675 5678 5680 5683 5686
5540 5550 5558 5566 5576 5585 5591 5598 5605 5612 5619 5623 5626 5628 5631 5634 5638 5638 5638 5642 5644 5645 5648 5650 5652 5654 5656 5656 5657 5656 5656 5656 5656 5653 5654 5658 5659 5661 5664 5665 5667 5670 5673
5537 5553 5557 5563 5572 5579 5583 5588 5593 5600 5606 5611 5615 5618 5622 5623 5624 5624 5626 5628 5630 5633 5636 5637 5640 5640 5643 5644 5644 5645 5644 5643 5640 5645 5642 5643 5645 5648 5650 5651 5654 5656 5661
5547 5552 5556 5561 5568 5572 5578 5583 5586 5591 5595 5599 5603 5607 5608 5609 5610 5613 5614 5618 5619 5622 5624 5626 5628 5627 5630 5631 5632 5634 5632 5630 5629 5628 5627 5628 5630 5633 5636 5639 5642 5645 5647
5549 5552 5555 5559 5563 5567 5570 5558 5572 5584 5581 5588 5592 5594 5595 5596 5598 5600 5602 5605 5606 5609 5610 5612 5614 5615 5616 5618 5618 5619 5618 5618 5617 5617 5614 5612 5614 5617 5622 5625 5627 5631 5633
5544 5548 5551 5555 5557 5560 5563 5566 5570 5573 5569 5572 5577 5582 5583 5580 5587 5587 5590 5589 5591 5592 5595 5597 5599 5601 5603 5604 5605 5605 5605 5604 5604 5604 5603 5601 5601 5603 5606 5610 5613 5616 5617
5538 5543 5542 5546 5543 5552 5548 5557 5556 5558 5561 5562 5566 5568 5570 5571 5572 5574 5575 5575 5574 5576 5579 5582 5585 5587 5589 5590 5591 5592 5592 5591 5590 5592 5591 5589 5590 5591 5592 5595 5597 5600 5603